Location: Indian Springs
(36.5700°N, 115.6700°W)
Time: 04:41:30
(UTC-08:00)

Daily predictions for brighter satellites

Satellite Brightness Start Highest point End
(mag) Time Altitude Azimuth Time Altitude Azimuth Time Altitude Azimuth
Cosmos 1697 Rocket 3.7 04:15:18 35° S 04:15:18 35° S 04:18:29 10° SSE
Meteor 1-19 Rocket 4.3 04:12:52 76° ENE 04:13:00 76° E 04:18:52 10° SSE
USA 267 3.9 04:09:40 10° NE 04:14:25 41° N 04:14:25 41° N
Lacrosse 5 rocket 3.6 04:20:35 19° SSE 04:20:35 19° SSE 04:21:58 10° SSE
RESURS DK-1 3.6 04:25:56 38° SE 04:25:56 38° SE 04:28:37 10° SSE
Timation 2 Rocket 4.1 04:24:06 10° SSW 04:30:57 87° WNW 04:37:52 10° NNE
Cosmos 1536 Rocket 3.9 04:30:58 60° ENE 04:31:01 60° E 04:35:19 10° SSE
CZ-2C R/B 3.7 04:28:42 10° SSE 04:32:54 73° ESE 04:32:54 73° ESE
COSMO-SKYMED 1 3.6 04:34:18 10° SE 04:38:24 44° ENE 04:40:55 21° NNE
SeaSat 1 3.5 04:33:37 10° NNE 04:36:18 32° N 04:36:18 32° N
Cosmos 1092 Rocket 4.5 04:35:25 10° S 04:41:23 58° E 04:47:24 10° NNE
IRS-P2 Rocket 4.4 04:39:22 10° N 04:44:35 68° WNW 04:49:52 10° SSW
USA 234 3.8 04:42:22 10° ESE 04:48:42 54° NE 04:52:33 24° NNW
Okean-O 2.8 04:45:07 10° NNE 04:49:34 72° ESE 04:53:58 10° S
CZ-2C R/B 3.6 04:46:41 10° NNE 04:51:13 41° E 04:55:35 10° SSE
Meteor 1-23 Rocket 4.3 04:45:59 11° N 04:51:25 74° E 04:56:56 10° SSE
NOAA 6 4.0 04:47:03 10° NNE 04:52:12 85° ESE 04:57:21 10° SSW
Okean 1 Rocket 3.4 04:49:17 10° S 04:53:35 64° E 04:57:57 10° NNE
Cosmos 1980 Rocket 2.2 04:52:51 49° WNW 04:53:45 55° WSW 04:59:14 10° S
Cosmos 2279 Rocket 4.3 04:56:31 41° W 04:56:36 41° W 05:02:19 10° SSW
CZ-4C R/B 2.2 04:58:36 46° W 04:59:27 51° NW 05:05:07 10° NNE
Cosmos 1515 4.4 04:57:11 17° N 04:59:59 52° E 05:03:43 10° SSE
Okean 2 4.5 04:56:27 10° N 05:00:23 44° E 05:04:18 10° SSE
Cosmos 773 Rocket 3.9 04:59:54 10° SSW 05:04:58 62° WNW 05:10:05 10° N
SKYMED 3 4.4 05:04:05 10° S 05:08:25 81° W 05:11:20 21° NNW
Cosmos 192 4.3 05:10:07 10° SSW 05:14:56 58° WNW 05:19:47 10° N
Cosmos 1680 Rocket 3.9 05:10:45 10° S 05:15:52 63° ESE 05:21:02 10° NNE
IDEFIX/ARIANE 42P 2.4 05:13:43 10° N 05:18:55 73° WNW 05:24:07 10° SSW
ATLAS CENTAUR R/B 4.1 05:18:12 10° SSE 05:20:55 19° ESE 05:23:36 10° ENE
OAO 3 Copernicus 4.5 05:19:34 23° WSW 05:22:37 68° S 05:27:36 10° E
Meteor 2-4 Rocket 4.2 05:21:19 24° NW 05:23:40 35° W 05:28:39 10° SSW
MTI 4.5 05:22:17 10° SSW 05:24:57 33° WSW 05:24:57 33° WSW
SKYMED 2 3.8 05:22:14 10° S 05:26:25 48° W 05:29:31 17° NNW
MSX 3.8 05:26:46 10° NNE 05:32:33 90° WNW 05:38:17 10° SSW
SL-16 R/B 2.1 05:28:43 10° NNW 05:34:19 78° WSW 05:39:57 10° SSE
EO 1 Del DPAF 3.7 05:33:26 10° SSW 05:37:00 38° W 05:39:29 18° NW
Cosmos 1743 3.7 05:34:17 10° SSE 05:37:57 49° E 05:41:39 10° NNE
Thor Agena Rocket 4.0 05:34:21 10° SSE 05:39:18 62° ENE 05:44:20 10° N
Cosmos 2322 Rocket 2.2 05:34:03 10° NNW 05:39:43 72° WSW 05:45:22 10° SSE
SMAP 4.3 05:35:38 10° NNE 05:40:05 44° E 05:44:32 10° S
Meteor 1-4 Rocket 3.3 05:37:11 10° SW 05:40:38 33° WNW 05:44:07 10° NNW
Cosmos 1484 Rocket 3.5 05:38:32 10° NNE 05:42:21 55° E 05:46:04 10° S
CSL-04 Rocket 4.4 05:39:52 10° NNE 05:45:21 58° ESE 05:50:46 10° S
BREEZE-M DEB (TANK) 3.7 05:44:29 18° WNW 05:47:12 89° SSW 05:56:18 10° ESE
Cosmos 923 Rocket 4.2 05:42:34 10° SW 05:47:37 47° WNW 05:52:40 10° N
Cosmos 1455 Rocket 3.8 05:45:35 10° S 05:49:55 57° E 05:54:19 10° NNE
Cosmos 1544 Rocket 3.9 05:49:46 10° S 05:54:12 71° E 05:58:38 10° NNE
Cosmos 2285 Rocket 4.0 05:48:07 10° SSW 05:54:20 60° WNW 06:00:35 10° N
Cosmos 1500 4.2 05:52:53 10° SW 05:56:11 26° WNW 05:59:28 10° NNW
Okean 1-7 Rocket 3.9 05:54:22 10° NNW 05:58:45 49° W 06:03:08 10° SSW
APEX 3.6 05:57:20 10° SW 06:00:20 33° WNW 06:04:01 10° N
Cosmos 1340 Rocket 4.5 05:57:28 10° N 06:01:08 35° ENE 06:04:47 10° SE
Cosmos 2322 4.4 05:58:05 10° NNW 06:03:40 56° ENE 06:09:12 10° SE
Cosmos 1025 Rocket 3.8 06:00:12 10° NNW 06:03:55 29° W 06:07:38 10° SSW
Cosmos 2112 Rocket 4.1 05:58:56 10° SW 06:03:58 52° WNW 06:09:03 10° N
Cosmos 1833 4.2 06:00:34 10° SSW 06:06:04 61° WNW 06:11:36 10° NNE
GPS 2-05 Rocket1 3.9 06:04:35 10° SW 06:07:51 42° SSE 06:11:03 10° E
Cosmos 1271 Rocket 2.6 06:04:17 10° S 06:08:03 86° W 06:11:49 10° N
Cosmos 1184 Rocket 3.6 06:05:07 10° NNW 06:08:07 31° W 06:11:06 10° SSW
Cosmos 2056 Rocket 4.3 06:08:38 10° N 06:13:39 53° ENE 06:18:40 10° SSE
COSMO-SKYMED 1 4.3 06:12:32 10° WSW 06:14:45 14° W 06:16:57 10° WNW
CZ-4 R/B 1.5 06:12:23 10° NNE 06:16:36 88° ESE 06:20:50 10° SSW
S3M 4.0 06:11:54 10° N 06:18:06 82° W 06:24:23 10° S
BREEZE-M DEB (TANK) 3.7 06:24:10 10° WSW 06:37:54 60° NW 06:41:38 10° NE
